COSMOS 1710 (GLONASS)

Satellite information

Favourite Embed

Satellite Type and Status

PAYLOADIN ORBIT

Key statistics

Satellite COSMOS 1710 (GLONASS) at a glance.

Uptime

14500

Days in orbit

Revolutions

≈ 2.1

Per day

Orbit

MEO

Medium Earth Orbit

Inclination

66.2

Latest

Satellite identification and parameters

Extended collection of information and parameters for COSMOS 1710 (GLONASS).

Object identification

Identified? True

Debris? False

Object name: COSMOS 1710 (GLONASS)

International designator: 1985-118A

Object number (NORAD): 16396

Object ID (CCSDS): 16396

Country: COMMONWEALTH OF INDEPENDENT STATES (CIS)

Current information (Y/N): Y

RCS size: MEDIUM

Orbital parameters

Period: 675.729 minutes

Inclination: 66.1799 deg

SMA: 25507.94 km

Apoapsis: 19166.118 km

Periapsis: 19093.492 km

RAAN: 333.9596 deg

Eccentricy: 0.0014236

Argument of periapsis: 204.731 deg

Mean anomaly: 124.2308 deg

Mean motion: 2.13103058 rev/day

Mean motion (dot): -0.00000082 rev/day2

B* drag term: 0.0 1/REarth

Two-line elements (TLE)

Creation date: Aug. 27, 2025, 8:01 p.m.

Reference frame: TEME

Reference center: EARTH

Epoch: Aug. 27, 2025, 1:23 p.m. UTC

TLE line 0: 0 COSMOS 1710 (GLONASS)

TLE line 1: 1 16396U 85118A 25239.55786550 -.00000082 00000-0 00000-0 0 9991

TLE line 2: 2 16396 66.1799 333.9596 0014236 204.7310 124.2308 2.13103058308864

Live tracking on map

Real-time ground track for satellite COSMOS 1710 (GLONASS).

In-orbit conjunctions

There are no conjunctions computed for COSMOS 1710 (GLONASS), at the moment. Check back to stay up to date, as we update our databases every day.

Go to all conjunctions

Associated space launch

GLONASS navigation satellites

COSMOS 1710 (GLONASS) was lifted into orbit during the mission ‘Proton | Uragan 12 & 13’, on board a Proton space rocket.

The launch took place on Dec. 24, 1985, 9:43 p.m. from 200/39 (200L).

For more information about the launch, click the button.

Launch to space Proton | Uragan 12 & 13
Proton | Uragan 12 & 13

Agency: N/A

Status: Launch Successful

Launch date: Dec. 24, 1985, 9:43 p.m. UTC

Rocket: Proton

Launch pad: 200/39 (200L)

Location: Baikonur Cosmodrome, Republic of Kazakhstan

...

Latest news about this satellite

There are no fresh news available about this satellite. Check back as we update our databases every day.


Newsletter sign-up

Weekly statistics, charts and insights to help you stay on top of the space industry.